timestamp,wind_dir_avg,wind_spd_avg,wind_spd_max_dir,wind_spd_gust,battery_voltage,lat,long
2021-04-07 00:04:01+00:00,42.0,8.3,42.0,9.06,12.57,47.59359,-54.27349
2021-04-07 00:14:01+00:00,45.0,8.36,44.0,8.87,12.49,47.59359,-54.27349
2021-04-07 00:24:01+00:00,46.0,8.72,45.0,9.67,12.49,47.59359,-54.27349
2021-04-07 00:34:01+00:00,41.0,8.39,43.0,9.1,12.49,47.59359,-54.27349
2021-04-07 00:44:01+00:00,41.0,8.42,42.0,9.58,12.49,47.59359,-54.27349
2021-04-07 00:54:01+00:00,42.0,8.52,39.0,9.24,12.49,47.59359,-54.27349
2021-04-07 01:04:01+00:00,40.0,8.78,39.0,9.61,12.49,47.59359,-54.27349
2021-04-07 01:14:01+00:00,44.0,9.03,45.0,10.09,12.49,47.59359,-54.27349
2021-04-07 01:24:01+00:00,40.0,8.12,41.0,9.18,12.49,47.59359,-54.27349
2021-04-07 01:34:01+00:00,47.0,8.31,42.0,9.32,12.49,47.59359,-54.27349
2021-04-07 01:44:01+00:00,40.0,6.92,41.0,7.9,12.49,47.59359,-54.27349
2021-04-07 01:54:01+00:00,40.0,6.2,42.0,6.81,12.49,47.59359,-54.27349
2021-04-07 02:04:01+00:00,38.0,6.19,43.0,6.77,12.49,47.59359,-54.27349
2021-04-07 02:14:01+00:00,40.0,6.42,41.0,7.18,12.49,47.59359,-54.27349
2021-04-07 02:24:01+00:00,42.0,6.77,43.0,7.96,12.49,47.59359,-54.27349
2021-04-07 02:34:01+00:00,43.0,7.01,41.0,8.3,12.49,47.59359,-54.27349
2021-04-07 02:44:01+00:00,44.0,8.96,45.0,9.88,12.49,47.59359,-54.27349
2021-04-07 02:54:01+00:00,46.0,8.91,45.0,9.8,12.49,47.59359,-54.27349
2021-04-07 03:04:01+00:00,44.0,8.98,43.0,9.92,12.49,47.59359,-54.27349
2021-04-07 03:14:01+00:00,46.0,10.7,44.0,11.61,12.49,47.59359,-54.27349
2021-04-07 03:24:01+00:00,49.0,9.35,49.0,10.68,12.49,47.59359,-54.27349
2021-04-07 03:34:01+00:00,52.0,8.03,50.0,8.91,12.49,47.59359,-54.27349
2021-04-07 03:44:01+00:00,48.0,7.87,45.0,8.73,12.49,47.59359,-54.27349
2021-04-07 03:54:01+00:00,49.0,8.21,46.0,8.87,12.49,47.59359,-54.27349
2021-04-07 04:04:01+00:00,49.0,8.11,49.0,8.87,12.49,47.59359,-54.27349
2021-04-07 04:14:01+00:00,50.0,8.25,50.0,9.11,12.41,47.59359,-54.27349
2021-04-07 04:24:01+00:00,51.0,7.68,52.0,8.62,12.41,47.59359,-54.27349
2021-04-07 04:34:01+00:00,53.0,8.6,52.0,9.25,12.41,47.59359,-54.27349
2021-04-07 04:44:01+00:00,54.0,8.41,53.0,8.92,12.41,47.59359,-54.27349
2021-04-07 04:54:01+00:00,58.0,8.08,56.0,8.62,12.41,47.59359,-54.27349
2021-04-07 05:04:01+00:00,55.0,8.4,54.0,9.01,12.41,47.59359,-54.27349
2021-04-07 05:14:01+00:00,50.0,7.09,53.0,7.94,12.41,47.59359,-54.27349
2021-04-07 05:24:01+00:00,47.0,7.81,42.0,8.53,12.41,47.59359,-54.27349
2021-04-07 05:34:01+00:00,43.0,7.93,40.0,8.58,12.41,47.59359,-54.27349
2021-04-07 05:44:01+00:00,45.0,7.96,46.0,8.49,12.41,47.59359,-54.27349
2021-04-07 05:54:01+00:00,45.0,8.18,42.0,9.19,12.41,47.59359,-54.27349
2021-04-07 06:04:01+00:00,43.0,8.79,42.0,9.64,12.41,47.59359,-54.27349
2021-04-07 06:14:01+00:00,45.0,10.29,49.0,11.48,12.41,47.59359,-54.27349
2021-04-07 06:24:01+00:00,46.0,10.55,48.0,11.43,12.41,47.59359,-54.27349
2021-04-07 06:34:01+00:00,47.0,9.23,47.0,10.44,12.41,47.59359,-54.27349
2021-04-07 06:44:01+00:00,48.0,8.3,49.0,9.81,12.41,47.59359,-54.27349
2021-04-07 06:54:01+00:00,51.0,7.86,53.0,8.47,12.41,47.59359,-54.27349
2021-04-07 07:04:01+00:00,48.0,9.31,45.0,10.15,12.41,47.59359,-54.27349
2021-04-07 07:14:01+00:00,43.0,8.69,43.0,9.45,12.41,47.59359,-54.27349
2021-04-07 07:24:01+00:00,45.0,8.92,44.0,9.89,12.41,47.59359,-54.27349
2021-04-07 07:34:01+00:00,48.0,8.77,44.0,10.14,12.41,47.59359,-54.27349
2021-04-07 07:44:01+00:00,48.0,8.39,43.0,9.37,12.41,47.59359,-54.27349
2021-04-07 07:54:01+00:00,44.0,9.77,44.0,10.91,12.41,47.59359,-54.27349
2021-04-07 08:04:01+00:00,43.0,9.73,44.0,10.58,12.41,47.59359,-54.27349
2021-04-07 08:14:01+00:00,38.0,9.09,39.0,10.63,12.33,47.59359,-54.27349
2021-04-07 08:24:01+00:00,34.0,8.84,40.0,9.48,12.33,47.59359,-54.27349
2021-04-07 08:34:01+00:00,29.0,8.85,29.0,10.22,12.33,47.59359,-54.27349
2021-04-07 08:44:01+00:00,30.0,9.63,30.0,10.93,12.33,47.59359,-54.27349
2021-04-07 08:54:01+00:00,28.0,8.45,29.0,9.55,12.33,47.59359,-54.27349
2021-04-07 09:04:01+00:00,34.0,8.9,35.0,9.79,12.33,47.59359,-54.27349
2021-04-07 09:14:01+00:00,35.0,8.27,34.0,9.1,12.33,47.59359,-54.27349
2021-04-07 09:24:01+00:00,43.0,8.5,44.0,9.76,12.33,47.59359,-54.27349
2021-04-07 09:34:01+00:00,43.0,9.6,41.0,10.47,12.33,47.59359,-54.27349
2021-04-07 09:44:01+00:00,41.0,8.51,39.0,9.7,12.33,47.59359,-54.27349
2021-04-07 09:54:01+00:00,37.0,9.89,36.0,11.01,12.33,47.59359,-54.27349
2021-04-07 10:04:01+00:00,28.0,6.53,28.0,7.37,12.33,47.59359,-54.27349
2021-04-07 10:14:01+00:00,30.0,6.99,32.0,8.02,12.41,47.59359,-54.27349
2021-04-07 10:24:01+00:00,29.0,6.91,26.0,8.3,12.41,47.59359,-54.27349
2021-04-07 10:34:01+00:00,30.0,7.36,34.0,8.33,12.41,47.59359,-54.27349
2021-04-07 10:44:01+00:00,38.0,8.35,43.0,9.76,12.41,47.59359,-54.27349
2021-04-07 10:54:01+00:00,48.0,8.79,44.0,9.87,12.41,47.59359,-54.27349
2021-04-07 11:04:01+00:00,49.0,9.3,49.0,10.23,12.41,47.59359,-54.27349
2021-04-07 11:14:01+00:00,42.0,8.39,43.0,9.58,13.44,47.59359,-54.27349
2021-04-07 11:24:01+00:00,48.0,10.26,44.0,11.94,13.44,47.59359,-54.27349
2021-04-07 11:34:01+00:00,48.0,10.8,57.0,13.31,13.44,47.59359,-54.27349
2021-04-07 11:44:01+00:00,46.0,10.07,43.0,11.2,13.44,47.59359,-54.27349
2021-04-07 11:54:01+00:00,44.0,10.24,39.0,11.33,13.44,47.59359,-54.27349
2021-04-07 12:04:01+00:00,45.0,10.78,55.0,12.55,13.44,47.59359,-54.27349
2021-04-07 12:14:01+00:00,45.0,9.9,46.0,10.63,13.68,47.59359,-54.27349
2021-04-07 12:24:01+00:00,49.0,8.94,39.0,11.38,13.68,47.59359,-54.27349
2021-04-07 12:34:01+00:00,48.0,11.12,49.0,12.95,13.68,47.59359,-54.27349
2021-04-07 12:44:01+00:00,46.0,10.51,45.0,11.71,13.68,47.59359,-54.27349
2021-04-07 12:54:01+00:00,44.0,10.11,41.0,11.51,13.68,47.59359,-54.27349
2021-04-07 13:04:01+00:00,46.0,10.77,42.0,12.0,13.68,47.59359,-54.27349
2021-04-07 13:14:01+00:00,46.0,9.79,41.0,10.7,13.84,47.59359,-54.27349
2021-04-07 13:24:01+00:00,46.0,9.04,39.0,10.3,13.84,47.59359,-54.27349
2021-04-07 13:34:01+00:00,43.0,9.55,40.0,10.39,13.84,47.59359,-54.27349
2021-04-07 13:44:01+00:00,44.0,10.85,46.0,11.74,13.84,47.59359,-54.27349
2021-04-07 13:54:01+00:00,40.0,10.32,37.0,11.32,13.84,47.59359,-54.27349
2021-04-07 14:04:01+00:00,36.0,11.19,37.0,13.22,13.84,47.59359,-54.27349
2021-04-07 14:14:01+00:00,36.0,10.15,31.0,11.08,13.84,47.59359,-54.27349
2021-04-07 14:24:01+00:00,29.0,7.53,29.0,8.2,13.84,47.59359,-54.27349
2021-04-07 14:34:01+00:00,34.0,8.7,37.0,9.61,13.84,47.59359,-54.27349
2021-04-07 14:44:01+00:00,40.0,10.75,39.0,12.18,13.84,47.59359,-54.27349
2021-04-07 14:54:01+00:00,43.0,10.77,46.0,11.93,13.84,47.59359,-54.27349
2021-04-07 15:04:01+00:00,43.0,10.09,43.0,10.83,13.84,47.59359,-54.27349
2021-04-07 15:14:01+00:00,42.0,8.53,40.0,9.65,13.76,47.59359,-54.27349
2021-04-07 15:24:01+00:00,40.0,9.87,39.0,10.57,13.76,47.59359,-54.27349
2021-04-07 15:34:01+00:00,41.0,8.71,39.0,9.58,13.76,47.59359,-54.27349
2021-04-07 15:44:01+00:00,38.0,7.06,37.0,8.16,13.76,47.59359,-54.27349
2021-04-07 15:54:01+00:00,30.0,6.69,37.0,7.76,13.76,47.59359,-54.27349
2021-04-07 16:04:01+00:00,36.0,9.1,37.0,10.1,13.76,47.59359,-54.27349
2021-04-07 16:14:01+00:00,41.0,10.64,39.0,12.1,13.84,47.59359,-54.27349
2021-04-07 16:24:01+00:00,48.0,12.31,49.0,13.89,13.84,47.59359,-54.27349
2021-04-07 16:34:01+00:00,52.0,12.48,56.0,15.43,13.84,47.59359,-54.27349
2021-04-07 16:44:01+00:00,47.0,11.49,47.0,13.22,13.84,47.59359,-54.27349
2021-04-07 16:54:01+00:00,46.0,12.79,45.0,14.29,13.84,47.59359,-54.27349
2021-04-07 17:04:01+00:00,43.0,11.83,48.0,13.53,13.84,47.59359,-54.27349
2021-04-07 17:14:01+00:00,46.0,11.12,48.0,12.15,13.84,47.59359,-54.27349
2021-04-07 17:24:01+00:00,48.0,11.25,50.0,12.32,13.84,47.59359,-54.27349
2021-04-07 17:34:01+00:00,48.0,10.12,51.0,11.02,13.84,47.59359,-54.27349
2021-04-07 17:44:01+00:00,49.0,10.72,55.0,12.96,13.84,47.59359,-54.27349
2021-04-07 17:54:01+00:00,48.0,10.24,47.0,11.43,13.84,47.59359,-54.27349
2021-04-07 18:04:01+00:00,49.0,9.96,51.0,10.99,13.84,47.59359,-54.27349
2021-04-07 18:14:01+00:00,50.0,9.64,51.0,10.56,13.92,47.59359,-54.27349
2021-04-07 18:24:01+00:00,48.0,9.85,46.0,10.54,13.92,47.59359,-54.27349
2021-04-07 18:34:01+00:00,50.0,8.9,48.0,9.89,13.92,47.59359,-54.27349
2021-04-07 18:44:01+00:00,47.0,10.92,50.0,12.28,13.92,47.59359,-54.27349
2021-04-07 18:54:01+00:00,47.0,11.39,54.0,13.75,13.92,47.59359,-54.27349
2021-04-07 19:04:01+00:00,50.0,9.44,50.0,10.39,13.92,47.59359,-54.27349
2021-04-07 19:14:01+00:00,48.0,9.0,49.0,9.64,13.84,47.59359,-54.27349
2021-04-07 19:24:01+00:00,44.0,9.19,42.0,9.97,13.84,47.59359,-54.27349
2021-04-07 19:34:01+00:00,50.0,9.23,50.0,10.11,13.84,47.59359,-54.27349
2021-04-07 19:44:01+00:00,47.0,9.44,47.0,10.33,13.84,47.59359,-54.27349
2021-04-07 19:54:01+00:00,46.0,9.4,45.0,10.14,13.84,47.59359,-54.27349
2021-04-07 20:04:01+00:00,47.0,8.92,48.0,9.62,13.84,47.59359,-54.27349
2021-04-07 20:14:01+00:00,44.0,9.6,45.0,10.81,13.68,47.59359,-54.27349
2021-04-07 20:24:01+00:00,42.0,9.7,42.0,10.68,13.68,47.59359,-54.27349
2021-04-07 20:34:01+00:00,43.0,9.95,46.0,11.19,13.68,47.59359,-54.27349
2021-04-07 20:44:01+00:00,48.0,9.78,49.0,10.59,13.68,47.59359,-54.27349
2021-04-07 20:54:01+00:00,46.0,9.45,46.0,9.98,13.68,47.59359,-54.27349
2021-04-07 21:04:01+00:00,42.0,9.39,40.0,10.55,13.68,47.59359,-54.27349
2021-04-07 21:14:01+00:00,44.0,9.47,44.0,10.71,13.37,47.59359,-54.27349
2021-04-07 21:24:01+00:00,42.0,10.19,40.0,11.21,13.37,47.59359,-54.27349
2021-04-07 21:34:01+00:00,42.0,10.14,46.0,11.65,13.37,47.59359,-54.27349
2021-04-07 21:44:01+00:00,42.0,10.44,40.0,11.52,13.37,47.59359,-54.27349
2021-04-07 21:54:01+00:00,43.0,10.47,45.0,11.42,13.37,47.59359,-54.27349
2021-04-07 22:04:01+00:00,42.0,10.86,45.0,12.03,13.37,47.59359,-54.27349
2021-04-07 22:14:01+00:00,40.0,10.99,40.0,11.82,12.81,47.59359,-54.27349
2021-04-07 22:24:01+00:00,41.0,10.51,40.0,11.79,12.81,47.59359,-54.27349
2021-04-07 22:34:01+00:00,37.0,11.48,38.0,12.35,12.81,47.59359,-54.27349
2021-04-07 22:44:01+00:00,36.0,10.36,36.0,10.97,12.81,47.59359,-54.27349
2021-04-07 22:54:01+00:00,35.0,10.53,37.0,11.16,12.81,47.59359,-54.27349
2021-04-07 23:04:01+00:00,36.0,10.33,37.0,11.16,12.81,47.59359,-54.27349
2021-04-07 23:14:01+00:00,33.0,10.65,35.0,11.51,12.57,47.59359,-54.27349
2021-04-07 23:24:01+00:00,34.0,10.67,31.0,11.62,12.57,47.59359,-54.27349
2021-04-07 23:34:01+00:00,33.0,10.48,36.0,11.6,12.57,47.59359,-54.27349
2021-04-07 23:44:01+00:00,38.0,9.23,38.0,10.24,12.57,47.59359,-54.27349
2021-04-07 23:54:01+00:00,37.0,9.98,38.0,10.7,12.57,47.59359,-54.27349
